Hourly Weather Adahovschina Pervaya

Today, 27 February, Saturday

Time Temperature Precipitation Wind Pressure Humidity
00:00 +1°C° 0 mm 5 mps 751 mmHg 87%
01:00 +1°C° 0 mm 4 mps 751 mmHg 88%
02:00 0°C° 0 mm 4 mps 751 mmHg 92%
03:00 0°C° 0 mm 4 mps 751 mmHg 92%
04:00 0°C° 0 mm 5 mps 751 mmHg 92%
05:00 0°C° 0 mm 5 mps 750 mmHg 92%
06:00 0°C° 0 mm 5 mps 751 mmHg 92%
07:00 0°C° 0 mm 5 mps 751 mmHg 92%
08:00 0°C° 0 mm 5 mps 751 mmHg 92%
09:00 +1°C° 0 mm 6 mps 751 mmHg 90%
10:00 +1°C° 0 mm 6 mps 752 mmHg 87%
11:00 +2°C° 0 mm 7 mps 752 mmHg 85%
12:00 +2°C° 0 mm 7 mps 752 mmHg 82%
13:00 +2°C° 0 mm 7 mps 753 mmHg 80%
14:00 +2°C° 0 mm 7 mps 753 mmHg 76%
15:00 +2°C° 0 mm 6 mps 753 mmHg 77%
16:00 +2°C° 0 mm 6 mps 753 mmHg 79%
17:00 +2°C° 0 mm 5 mps 754 mmHg 80%
18:00 +2°C° 0 mm 5 mps 754 mmHg 79%
19:00 +1°C° 0 mm 5 mps 755 mmHg 79%
20:00 +1°C° 0 mm 5 mps 755 mmHg 78%
21:00 0°C° 0 mm 4 mps 756 mmHg 81%
22:00 0°C° 0 mm 4 mps 756 mmHg 83%
23:00 -1°C° 0 mm 4 mps 756 mmHg 86%

Tomorrow, 28 February, Sunday

Time Temperature Precipitation Wind Pressure Humidity
00:00 -2°C° 0 mm 4 mps 756 mmHg 87%
01:00 -2°C° 0 mm 4 mps 757 mmHg 88%
02:00 -3°C° 0 mm 4 mps 757 mmHg 89%
03:00 -3°C° 0 mm 4 mps 757 mmHg 89%
04:00 -3°C° 0 mm 4 mps 757 mmHg 89%
05:00 -3°C° 0 mm 4 mps 757 mmHg 89%
06:00 -2°C° 0 mm 4 mps 757 mmHg 88%
07:00 -2°C° 0 mm 4 mps 757 mmHg 87%
08:00 -2°C° 0 mm 5 mps 757 mmHg 86%
09:00 -1°C° 0 mm 5 mps 756 mmHg 81%
10:00 0°C° 0 mm 5 mps 756 mmHg 77%
11:00 +1°C° 0 mm 5 mps 756 mmHg 73%
12:00 +2°C° 0 mm 5 mps 755 mmHg 72%
13:00 +3°C° 0 mm 5 mps 755 mmHg 71%
14:00 +3°C° 0 mm 5 mps 755 mmHg 71%
15:00 +3°C° 0 mm 6 mps 754 mmHg 76%
16:00 +2°C° 0 mm 6 mps 754 mmHg 81%
17:00 +2°C° 0 mm 6 mps 754 mmHg 86%
18:00 +2°C° 0.1 mm 6 mps 754 mmHg 89%
19:00 +2°C° 0.1 mm 6 mps 754 mmHg 91%
20:00 +1°C° 0.1 mm 6 mps 754 mmHg 93%
21:00 +1°C° 0.1 mm 5 mps 755 mmHg 93%
22:00 +1°C° 0.1 mm 5 mps 755 mmHg 92%
23:00 +1°C° 0.1 mm 4 mps 755 mmHg 92%

Day after tomorrow, 1 March, Monday

Time Temperature Precipitation Wind Pressure Humidity
00:00 +2°C° 0 mm 3 mps 756 mmHg 93%
01:00 +1°C° 0 mm 3 mps 757 mmHg 93%
02:00 +2°C° 0 mm 2 mps 758 mmHg 94%
03:00 +1°C° 0 mm 2 mps 758 mmHg 95%
04:00 +1°C° 0 mm 2 mps 758 mmHg 95%
05:00 +1°C° 0 mm 2 mps 758 mmHg 96%
06:00 -1°C° 0 mm 2 mps 758 mmHg 96%
07:00 -1°C° 0 mm 2 mps 759 mmHg 96%
08:00 -1°C° 0 mm 2 mps 759 mmHg 96%
09:00 +2°C° 0 mm 2 mps 759 mmHg 90%
10:00 +3°C° 0 mm 2 mps 759 mmHg 83%
11:00 +4°C° 0 mm 2 mps 760 mmHg 77%
12:00 +5°C° 0 mm 2 mps 760 mmHg 74%
13:00 +5°C° 0 mm 3 mps 760 mmHg 71%
14:00 +7°C° 0 mm 3 mps 760 mmHg 69%
15:00 +7°C° 0 mm 3 mps 759 mmHg 72%
16:00 +5°C° 0 mm 3 mps 759 mmHg 75%
17:00 +5°C° 0 mm 3 mps 759 mmHg 78%
18:00 +4°C° 0 mm 3 mps 759 mmHg 82%
19:00 +3°C° 0 mm 3 mps 759 mmHg 87%
20:00 +2°C° 0 mm 3 mps 759 mmHg 91%
21:00 +2°C° 0 mm 3 mps 759 mmHg 91%
22:00 +2°C° 0 mm 3 mps 759 mmHg 91%
23:00 +2°C° 0 mm 3 mps 759 mmHg 91%

2 March, Tuesday

Time Temperature Precipitation Wind Pressure Humidity
00:00 +1°C° 0 mm 4 mps 758 mmHg 91%
01:00 +1°C° 0 mm 4 mps 758 mmHg 90%
02:00 +1°C° 0 mm 4 mps 758 mmHg 90%
03:00 0°C° 0 mm 4 mps 758 mmHg 91%
04:00 0°C° 0 mm 4 mps 757 mmHg 92%
05:00 0°C° 0 mm 4 mps 757 mmHg 93%
06:00 0°C° 0 mm 5 mps 757 mmHg 93%
07:00 0°C° 0 mm 5 mps 757 mmHg 92%
08:00 0°C° 0 mm 5 mps 757 mmHg 92%
09:00 0°C° 0 mm 4 mps 758 mmHg 88%
10:00 +1°C° 0 mm 4 mps 758 mmHg 84%
11:00 +3°C° 0 mm 3 mps 758 mmHg 80%
12:00 +4°C° 0 mm 3 mps 758 mmHg 75%
13:00 +5°C° 0 mm 4 mps 758 mmHg 70%
14:00 +7°C° 0 mm 4 mps 758 mmHg 66%
15:00 +7°C° 0 mm 4 mps 758 mmHg 67%
16:00 +6°C° 0 mm 4 mps 758 mmHg 68%
17:00 +6°C° 0 mm 4 mps 757 mmHg 69%
18:00 +5°C° 0 mm 4 mps 758 mmHg 74%
19:00 +4°C° 0 mm 4 mps 758 mmHg 78%
20:00 +3°C° 0 mm 3 mps 758 mmHg 83%
21:00 +3°C° 0 mm 3 mps 758 mmHg 85%
22:00 +2°C° 0 mm 3 mps 758 mmHg 87%
23:00 +2°C° 0 mm 3 mps 758 mmHg 89%

3 March, Wednesday

Time Temperature Precipitation Wind Pressure Humidity
00:00 +2°C° 0 mm 2 mps 758 mmHg 90%
01:00 +2°C° 0 mm 2 mps 758 mmHg 91%
02:00 +2°C° 0 mm 2 mps 758 mmHg 92%
03:00 +1°C° 0 mm 2 mps 758 mmHg 93%
04:00 +1°C° 0 mm 2 mps 758 mmHg 93%
05:00 +1°C° 0 mm 2 mps 758 mmHg 94%
06:00 +1°C° 0 mm 2 mps 758 mmHg 94%
07:00 +1°C° 0 mm 2 mps 758 mmHg 94%
08:00 +1°C° 0 mm 2 mps 758 mmHg 94%
09:00 +2°C° 0 mm 2 mps 758 mmHg 87%
10:00 +4°C° 0 mm 2 mps 758 mmHg 80%
11:00 +6°C° 0 mm 2 mps 758 mmHg 73%
12:00 +6°C° 0 mm 2 mps 758 mmHg 69%
13:00 +7°C° 0 mm 2 mps 758 mmHg 66%
14:00 +8°C° 0 mm 2 mps 758 mmHg 62%
15:00 +8°C° 0 mm 2 mps 758 mmHg 65%
16:00 +8°C° 0 mm 1 mps 757 mmHg 67%
17:00 +8°C° 0 mm 1 mps 757 mmHg 70%
18:00 +7°C° 0 mm 1 mps 757 mmHg 76%
19:00 +6°C° 0 mm 1 mps 757 mmHg 82%
20:00 +4°C° 0 mm 1 mps 757 mmHg 87%
21:00 +4°C° 0 mm 1 mps 756 mmHg 88%
22:00 +3°C° 0 mm 1 mps 756 mmHg 90%
23:00 +3°C° 0 mm 1 mps 756 mmHg 91%

4 March, Thursday

Time Temperature Precipitation Wind Pressure Humidity
00:00 +1°C° 0 mm 2 mps 755 mmHg 91%
01:00 +1°C° 0 mm 2 mps 755 mmHg 92%
02:00 +1°C° 0 mm 2 mps 754 mmHg 93%
03:00 -1°C° 0 mm 2 mps 753 mmHg 94%
04:00 -1°C° 0 mm 2 mps 753 mmHg 94%
05:00 -1°C° 0 mm 2 mps 752 mmHg 95%
06:00 -1°C° 0 mm 2 mps 751 mmHg 94%
07:00 0°C° 0 mm 3 mps 751 mmHg 93%
08:00 0°C° 0 mm 3 mps 750 mmHg 92%
09:00 +2°C° 0 mm 3 mps 750 mmHg 84%
10:00 +4°C° 0 mm 4 mps 749 mmHg 76%
11:00 +5°C° 0 mm 4 mps 749 mmHg 69%
12:00 +6°C° 0 mm 4 mps 748 mmHg 67%
13:00 +7°C° 0 mm 5 mps 748 mmHg 65%
14:00 +8°C° 0 mm 5 mps 747 mmHg 63%
15:00 +8°C° 0 mm 5 mps 747 mmHg 67%
16:00 +7°C° 0 mm 4 mps 746 mmHg 70%
17:00 +7°C° 0 mm 4 mps 746 mmHg 74%
18:00 +6°C° 0 mm 4 mps 746 mmHg 78%
19:00 +5°C° 0 mm 3 mps 745 mmHg 82%
20:00 +5°C° 0 mm 3 mps 745 mmHg 86%
21:00 +5°C° 0 mm 3 mps 745 mmHg 87%
22:00 +4°C° 0 mm 3 mps 745 mmHg 88%
23:00 +5°C° 0 mm 2 mps 744 mmHg 89%
Show more